STARLINK-2201 (47415 NORAD) Tracking and Keplerian Element Data

This shows tracking and keplerian element data for the satellite.

Feedback or suggestion? Click here.




ElementValue
Catalog47415
NameSTARLINK-2201
Epoch Orbit1200
Epoch Day101.91428141
Epoch Year2021
RAAN164.52
Inclination97.4986
Eccentricity0.0011683
Argument of Perigee14.2512
Mean Anonmoly345.9047
Mean Motion15.14330219
Decay Rate8.42E-06
L11 47415U 21006C 21101.91428141 .00000842 00000-0 49511-4 0 9993
L22 47415 97.4986 164.5200 0011683 14.2512 345.9047 15.14330219 12002

Live tracking and technical data element details for STARLINK-2201 (NORAD 47415). STARLINK-2201 can be tracked NOW for your location showing map with azimuth and elevation plus other details from your city location.

Track the satellite on the map from your city or location and see movement details for azimuth, elevation, latitude, longitude, range, height, and movement on the map or in text.







IsCatalogInMostPopularTable: catalog: 47415, numindb: 16
Update: records affected: 1



GetName: 47415 STARLINK-2201

Hit Count: updated at: Tue, 13 Apr 2021 05:27:53 GMT